{"data":{"norad_id":63961,"epoch":"2026-09-20T23:35:17.624832Z","epoch_age_seconds":105373,"freshness":"FRESH","line1":"1 63961U 25099K   26263.98284288  .00014134  00000+0  52200-3 0  9992","line2":"2 63961  42.9972 153.3209 0000938 120.9585 239.1359 15.27590742 77203","mean_motion":15.27590742,"eccentricity":9.38e-5,"inclination_deg":42.9972,"raan_deg":153.3209,"arg_perigee_deg":120.9585,"mean_anomaly_deg":239.1359,"bstar":0.000522,"rev_number":7720,"period_min":94.266085830992,"perigee_km":482.37335457702,"apogee_km":483.66050705444,"semimajor_km":6861.1539308157,"source":"CELESTRAK","updated_at":"2026-09-21T09:00:35.175490Z"}}